Darstellungsparameter: Aktuell verwendete Einstellungen:
Skalierung der Graphiken ... ?
xyx+y,   Skalierungsfaktor:      Skalierung: Modus: x, Faktor: 1
Darstellungszeitraum ... ?
Vom - - bis: - -   Zeitraum: 12.09.2019 - 12.09.2019
Min/Max/Avg-Anzeige ... ?
Zeige MMA aktuell
Zeige MMA Monat
Zeige MMA alles
Zeige --A aktuell
Zeige --A Monat
Zeige --A alles
Keine MMA-Anzeige
MMA:
Average (ber die Originaldaten)
MMA-Basis: 21.07.2019 - 23.08.2019
Quicknavigation für Darstellung... ?
Tage:      1T, 2T, 3T, 5T -1T -2T -3T -5T +1T +2T +3T +5T
Wochen: 1W, 2W, 3W -1W -2W -3W +1W +2W +3W
Monate: 1M, 3M, 6M -1M -3M -6M +1M +3M +6M
Jahre:    1J, 3J, 5J, 10J -1J -3J -5J -10J +1J +3J +5J +10J
Nutze für die Darstellung ... ?
Originaldaten oder Mittelwerte auf ...
Stundenbasis Tagesbasis Wochenbasis
Monatsbasis Jahresbasis      Datenbasis: Original-Daten
Darstellen als:
Statistik (Auto) Statistik J:M      Darstellung:
Zur Graphik,    zurück zur Übersicht aller Sensoren.
 
Tabellarische Datenbersicht: ?
 
Sensor: Nr:Datum:Temp:Feuchte:Taupunkt:
Aussen-T/F 1 12-09-2019 00:00:00 15.3 C 83 % 12.43 C
2 12-09-2019 00:05:00 15.3 C 83 % 12.43 C
3 12-09-2019 00:10:00 15.3 C 84 % 12.61 C
4 12-09-2019 00:15:00 15.3 C 84 % 12.61 C
5 12-09-2019 00:20:00 15.4 C 84 % 12.71 C
6 12-09-2019 00:25:00 15.4 C 84 % 12.71 C
7 12-09-2019 00:30:00 15.5 C 83 % 12.63 C
8 12-09-2019 00:35:00 15.6 C 83 % 12.72 C
9 12-09-2019 00:40:00 15.7 C 84 % 13.01 C
10 12-09-2019 00:45:00 15.7 C 82 % 12.64 C
11 12-09-2019 00:50:00 15.8 C 81 % 12.55 C
12 12-09-2019 00:55:00 15.9 C 80 % 12.46 C
13 12-09-2019 01:00:00 16.1 C 81 % 12.84 C
14 12-09-2019 01:05:00 16.1 C 81 % 12.84 C
15 12-09-2019 01:10:00 16.2 C 82 % 13.13 C
16 12-09-2019 01:15:00 16.2 C 81 % 12.94 C
17 12-09-2019 01:20:00 16.1 C 81 % 12.84 C
18 12-09-2019 01:25:00 16.1 C 82 % 13.03 C
19 12-09-2019 01:30:00 16.1 C 82 % 13.03 C
20 12-09-2019 01:35:00 16.1 C 81 % 12.84 C
21 12-09-2019 01:40:00 16.1 C 81 % 12.84 C
22 12-09-2019 01:45:00 16.1 C 80 % 12.65 C
23 12-09-2019 01:50:00 16.2 C 78 % 12.36 C
24 12-09-2019 01:55:00 16.3 C 78 % 12.46 C
25 12-09-2019 02:00:00 16.4 C 78 % 12.56 C
Sensor: Nr:Datum:Temp:Feuchte:Taupunkt:
Aussen-T/F 26 12-09-2019 02:05:00 16.6 C 76 % 12.36 C
27 12-09-2019 02:10:00 16.9 C 74 % 12.24 C
28 12-09-2019 02:15:00 17.1 C 74 % 12.43 C
29 12-09-2019 02:20:00 17.2 C 73 % 12.32 C
30 12-09-2019 02:25:00 17.3 C 72 % 12.21 C
31 12-09-2019 02:30:00 17.4 C 73 % 12.51 C
32 12-09-2019 02:35:00 17.5 C 73 % 12.61 C
33 12-09-2019 02:40:00 17.6 C 72 % 12.5 C
34 12-09-2019 02:45:00 17.6 C 73 % 12.71 C
35 12-09-2019 02:50:00 17.6 C 73 % 12.71 C
36 12-09-2019 02:55:00 17.6 C 73 % 12.71 C
37 12-09-2019 03:00:00 17.5 C 74 % 12.82 C
38 12-09-2019 03:05:00 17.4 C 74 % 12.72 C
39 12-09-2019 03:10:00 17.3 C 75 % 12.83 C
40 12-09-2019 03:15:00 17.3 C 76 % 13.03 C
41 12-09-2019 03:20:00 17.2 C 77 % 13.14 C
42 12-09-2019 03:25:00 17.1 C 75 % 12.64 C
43 12-09-2019 03:30:00 17.1 C 76 % 12.84 C
44 12-09-2019 03:35:00 17.1 C 74 % 12.43 C
45 12-09-2019 03:40:00 17.2 C 75 % 12.73 C
46 12-09-2019 03:45:00 17.2 C 74 % 12.53 C
47 12-09-2019 03:50:00 17.2 C 74 % 12.53 C
48 12-09-2019 03:55:00 17.3 C 75 % 12.83 C
49 12-09-2019 04:00:00 17.2 C 75 % 12.73 C
50 12-09-2019 04:05:00 17.2 C 75 % 12.73 C
Sensor: Nr:Datum:Temp:Feuchte:Taupunkt:
Aussen-T/F 51 12-09-2019 04:10:00 17.2 C 76 % 12.94 C
52 12-09-2019 04:15:00 17.1 C 76 % 12.84 C
53 12-09-2019 04:20:00 17.1 C 76 % 12.84 C
54 12-09-2019 04:25:00 17.1 C 76 % 12.84 C
55 12-09-2019 04:30:00 17 C 76 % 12.74 C
56 12-09-2019 04:35:00 17 C 77 % 12.94 C
57 12-09-2019 04:40:00 17 C 77 % 12.94 C
58 12-09-2019 04:45:00 16.9 C 77 % 12.84 C
59 12-09-2019 04:50:00 16.9 C 77 % 12.84 C
60 12-09-2019 04:55:00 16.9 C 78 % 13.04 C
61 12-09-2019 05:00:00 16.8 C 79 % 13.14 C
62 12-09-2019 05:05:00 16.8 C 78 % 12.94 C
63 12-09-2019 05:10:00 16.8 C 78 % 12.94 C
64 12-09-2019 05:15:00 16.8 C 78 % 12.94 C
65 12-09-2019 05:20:00 16.8 C 78 % 12.94 C
66 12-09-2019 05:25:00 16.9 C 78 % 13.04 C
67 12-09-2019 05:30:00 17.1 C 77 % 13.04 C
68 12-09-2019 05:35:00 17.1 C 77 % 13.04 C
69 12-09-2019 05:40:00 17.1 C 78 % 13.24 C
70 12-09-2019 05:45:00 17.1 C 78 % 13.24 C
71 12-09-2019 05:50:00 17.2 C 77 % 13.14 C
72 12-09-2019 05:55:00 17.2 C 78 % 13.33 C
73 12-09-2019 06:00:00 17.2 C 78 % 13.33 C
74 12-09-2019 06:05:00 17.1 C 78 % 13.24 C
75 12-09-2019 06:10:00 17.1 C 79 % 13.43 C
Sensor: Nr:Datum:Temp:Feuchte:Taupunkt:
Aussen-T/F 76 12-09-2019 06:15:00 17 C 79 % 13.33 C
77 12-09-2019 06:20:00 17 C 79 % 13.33 C
78 12-09-2019 06:25:00 16.9 C 79 % 13.24 C
79 12-09-2019 06:30:00 16.8 C 79 % 13.14 C
80 12-09-2019 06:35:00 16.8 C 80 % 13.33 C
81 12-09-2019 06:40:00 16.8 C 80 % 13.33 C
82 12-09-2019 06:45:00 16.8 C 80 % 13.33 C
83 12-09-2019 06:50:00 16.7 C 80 % 13.23 C
84 12-09-2019 06:55:00 16.6 C 80 % 13.14 C
85 12-09-2019 07:00:00 16.4 C 81 % 13.13 C
86 12-09-2019 07:05:00 16.3 C 82 % 13.22 C
87 12-09-2019 07:10:00 16.2 C 82 % 13.13 C
88 12-09-2019 07:15:00 16.2 C 83 % 13.31 C
89 12-09-2019 07:20:00 16.2 C 83 % 13.31 C
90 12-09-2019 07:25:00 16.2 C 83 % 13.31 C
91 12-09-2019 07:30:00 16.2 C 84 % 13.5 C
92 12-09-2019 07:35:00 16.2 C 84 % 13.5 C
93 12-09-2019 07:40:00 16.2 C 84 % 13.5 C
94 12-09-2019 07:45:00 16.2 C 85 % 13.68 C
95 12-09-2019 07:50:00 16.3 C 85 % 13.77 C
96 12-09-2019 07:55:00 16.3 C 85 % 13.77 C
97 12-09-2019 08:00:00 16.3 C 85 % 13.77 C
98 12-09-2019 08:05:00 16.4 C 84 % 13.69 C
99 12-09-2019 08:10:00 16.6 C 85 % 14.07 C
100 12-09-2019 08:15:00 16.6 C 85 % 14.07 C
Sensor: Nr:Datum:Temp:Feuchte:Taupunkt:
Aussen-T/F 101 12-09-2019 08:20:00 16.7 C 84 % 13.98 C
102 12-09-2019 08:25:00 16.8 C 84 % 14.08 C
103 12-09-2019 08:30:00 16.9 C 84 % 14.18 C
104 12-09-2019 08:35:00 17 C 84 % 14.28 C
105 12-09-2019 08:40:00 17.1 C 83 % 14.19 C
106 12-09-2019 08:45:00 17.1 C 84 % 14.38 C
107 12-09-2019 08:50:00 17.2 C 84 % 14.47 C
108 12-09-2019 08:55:00 17.3 C 84 % 14.57 C
109 12-09-2019 09:00:00 17.3 C 84 % 14.57 C
110 12-09-2019 09:05:00 17.3 C 84 % 14.57 C
111 12-09-2019 09:10:00 17.3 C 84 % 14.57 C
112 12-09-2019 09:15:00 17.3 C 84 % 14.57 C
113 12-09-2019 09:20:00 17.3 C 84 % 14.57 C
114 12-09-2019 09:25:00 17.3 C 84 % 14.57 C
115 12-09-2019 09:30:00 17.3 C 85 % 14.76 C
116 12-09-2019 09:35:00 17.4 C 85 % 14.85 C
117 12-09-2019 09:40:00 17.4 C 85 % 14.85 C
118 12-09-2019 09:45:00 17.6 C 85 % 15.05 C
119 12-09-2019 09:50:00 17.7 C 85 % 15.15 C
120 12-09-2019 09:55:00 17.7 C 85 % 15.15 C
121 12-09-2019 10:00:00 17.8 C 85 % 15.25 C
122 12-09-2019 10:05:00 17.8 C 85 % 15.25 C
123 12-09-2019 10:10:00 17.9 C 85 % 15.34 C
124 12-09-2019 10:15:00 18.1 C 84 % 15.35 C
125 12-09-2019 10:20:00 18.2 C 84 % 15.45 C
Sensor: Nr:Datum:Temp:Feuchte:Taupunkt:
Aussen-T/F 126 12-09-2019 10:25:00 18.3 C 84 % 15.55 C
127 12-09-2019 10:30:00 18.4 C 84 % 15.65 C
128 12-09-2019 10:35:00 18.4 C 84 % 15.65 C
129 12-09-2019 10:40:00 18.4 C 84 % 15.65 C
130 12-09-2019 10:45:00 18.4 C 84 % 15.65 C
131 12-09-2019 10:50:00 18.4 C 83 % 15.46 C
132 12-09-2019 10:55:00 18.5 C 83 % 15.56 C
133 12-09-2019 11:00:00 18.6 C 83 % 15.66 C
134 12-09-2019 11:05:00 18.7 C 83 % 15.75 C
135 12-09-2019 11:10:00 18.8 C 83 % 15.85 C
136 12-09-2019 11:15:00 18.9 C 83 % 15.95 C
137 12-09-2019 11:20:00 18.9 C 82 % 15.76 C
138 12-09-2019 11:25:00 19 C 82 % 15.86 C
139 12-09-2019 11:30:00 19.1 C 83 % 16.15 C
140 12-09-2019 11:35:00 19.3 C 82 % 16.15 C
141 12-09-2019 11:40:00 19.6 C 82 % 16.44 C
142 12-09-2019 11:45:00 19.8 C 81 % 16.45 C
143 12-09-2019 11:50:00 19.9 C 79 % 16.15 C
144 12-09-2019 11:55:00 20 C 80 % 16.44 C
145 12-09-2019 12:00:00 20.1 C 80 % 16.54 C
146 12-09-2019 12:05:00 20.1 C 79 % 16.34 C
147 12-09-2019 12:10:00 20.2 C 79 % 16.44 C
148 12-09-2019 12:15:00 20.3 C 79 % 16.54 C
149 12-09-2019 12:20:00 20.3 C 79 % 16.54 C
150 12-09-2019 12:25:00 20.4 C 79 % 16.64 C
Sensor: Nr:Datum:Temp:Feuchte:Taupunkt:
Aussen-T/F 151 12-09-2019 12:30:00 20.3 C 79 % 16.54 C
152 12-09-2019 12:35:00 20.3 C 80 % 16.74 C
153 12-09-2019 12:40:00 20.3 C 79 % 16.54 C
154 12-09-2019 12:45:00 20.3 C 80 % 16.74 C
155 12-09-2019 12:50:00 20.3 C 80 % 16.74 C
156 12-09-2019 12:55:00 20.2 C 80 % 16.64 C
157 12-09-2019 13:00:00 20.2 C 81 % 16.84 C
158 12-09-2019 13:05:00 20.3 C 81 % 16.93 C
159 12-09-2019 13:10:00 20.4 C 80 % 16.83 C
160 12-09-2019 13:15:00 20.5 C 80 % 16.93 C
161 12-09-2019 13:20:00 20.7 C 80 % 17.13 C
162 12-09-2019 13:25:00 20.7 C 78 % 16.73 C
163 12-09-2019 13:30:00 20.9 C 78 % 16.92 C
164 12-09-2019 13:35:00 21.1 C 77 % 16.91 C
165 12-09-2019 13:40:00 21.3 C 77 % 17.1 C
166 12-09-2019 13:45:00 21.5 C 77 % 17.3 C
167 12-09-2019 13:50:00 21.6 C 76 % 17.19 C
168 12-09-2019 13:55:00 21.6 C 75 % 16.98 C
169 12-09-2019 14:00:00 21.6 C 76 % 17.19 C
170 12-09-2019 14:05:00 21.5 C 76 % 17.09 C
171 12-09-2019 14:10:00 21.4 C 76 % 16.99 C
172 12-09-2019 14:15:00 21.4 C 76 % 16.99 C
173 12-09-2019 14:20:00 21.4 C 78 % 17.4 C
174 12-09-2019 14:25:00 21.4 C 77 % 17.2 C
175 12-09-2019 14:30:00 21.4 C 79 % 17.61 C
Sensor: Nr:Datum:Temp:Feuchte:Taupunkt:
Aussen-T/F 176 12-09-2019 14:35:00 21.4 C 80 % 17.81 C
177 12-09-2019 14:40:00 21.3 C 80 % 17.71 C
178 12-09-2019 14:45:00 21.3 C 81 % 17.91 C
179 12-09-2019 14:50:00 21.3 C 81 % 17.91 C
180 12-09-2019 14:55:00 21.2 C 81 % 17.81 C
181 12-09-2019 15:00:00 21.2 C 82 % 18 C
182 12-09-2019 15:05:00 21.3 C 78 % 17.31 C
183 12-09-2019 15:10:00 21.6 C 76 % 17.19 C
184 12-09-2019 15:15:00 21.9 C 76 % 17.48 C
185 12-09-2019 15:20:00 22.5 C 74 % 17.63 C
186 12-09-2019 15:25:00 22.7 C 74 % 17.83 C
187 12-09-2019 15:30:00 22.8 C 72 % 17.49 C
188 12-09-2019 15:35:00 22.7 C 71 % 17.17 C
189 12-09-2019 15:40:00 22.7 C 72 % 17.39 C
190 12-09-2019 15:45:00 22.6 C 74 % 17.73 C
191 12-09-2019 15:50:00 22.6 C 75 % 17.94 C
192 12-09-2019 15:55:00 22.5 C 76 % 18.06 C
193 12-09-2019 16:00:00 22.3 C 73 % 17.23 C
194 12-09-2019 16:05:00 22.3 C 74 % 17.44 C
195 12-09-2019 16:10:00 22.3 C 76 % 17.86 C
196 12-09-2019 16:15:00 22.2 C 76 % 17.77 C
197 12-09-2019 16:20:00 22.5 C 75 % 17.85 C
198 12-09-2019 16:25:00 22.8 C 72 % 17.49 C
199 12-09-2019 16:30:00 23.2 C 69 % 17.2 C
200 12-09-2019 16:35:00 23.2 C 70 % 17.42 C
Sensor: Nr:Datum:Temp:Feuchte:Taupunkt:
Aussen-T/F 201 12-09-2019 16:40:00 23.3 C 68 % 17.06 C
202 12-09-2019 16:45:00 23.6 C 69 % 17.58 C
203 12-09-2019 16:50:00 23.8 C 68 % 17.54 C
204 12-09-2019 16:55:00 23.9 C 69 % 17.87 C
205 12-09-2019 17:00:00 23.9 C 67 % 17.4 C
206 12-09-2019 17:05:00 24.2 C 67 % 17.68 C
207 12-09-2019 17:10:00 24.7 C 64 % 17.43 C
208 12-09-2019 17:15:00 24.7 C 64 % 17.43 C
209 12-09-2019 17:20:00 24.2 C 65 % 17.2 C
210 12-09-2019 17:25:00 24.1 C 66 % 17.35 C
211 12-09-2019 17:30:00 24 C 66 % 17.26 C
212 12-09-2019 17:35:00 24.2 C 65 % 17.2 C
213 12-09-2019 17:40:00 24.7 C 64 % 17.43 C
214 12-09-2019 17:45:00 25 C 64 % 17.72 C
215 12-09-2019 17:50:00 25.1 C 61 % 17.05 C
216 12-09-2019 17:55:00 24.5 C 65 % 17.49 C
217 12-09-2019 18:00:00 24.5 C 63 % 16.99 C
218 12-09-2019 18:05:00 24.8 C 63 % 17.28 C
219 12-09-2019 18:10:00 24.9 C 65 % 17.87 C
220 12-09-2019 18:15:00 24.9 C 65 % 17.87 C
221 12-09-2019 18:20:00 24.9 C 64 % 17.62 C
222 12-09-2019 18:25:00 25.1 C 66 % 18.3 C
223 12-09-2019 18:30:00 25.2 C 63 % 17.65 C
224 12-09-2019 18:35:00 25.3 C 64 % 18 C
225 12-09-2019 18:40:00 25.3 C 63 % 17.75 C
Sensor: Nr:Datum:Temp:Feuchte:Taupunkt:
Aussen-T/F 226 12-09-2019 18:45:00 25.2 C 61 % 17.14 C
227 12-09-2019 18:50:00 24.8 C 64 % 17.53 C
228 12-09-2019 18:55:00 24.6 C 65 % 17.58 C
229 12-09-2019 19:00:00 24.4 C 66 % 17.64 C
230 12-09-2019 19:05:00 24.2 C 66 % 17.45 C
231 12-09-2019 19:10:00 24.1 C 67 % 17.59 C
232 12-09-2019 19:15:00 23.9 C 68 % 17.63 C
233 12-09-2019 19:20:00 23.7 C 68 % 17.44 C
234 12-09-2019 19:25:00 23.4 C 68 % 17.16 C
235 12-09-2019 19:30:00 23.1 C 69 % 17.1 C
236 12-09-2019 19:35:00 22.6 C 70 % 16.85 C
237 12-09-2019 19:40:00 22 C 71 % 16.5 C
238 12-09-2019 19:45:00 21.5 C 73 % 16.46 C
239 12-09-2019 19:50:00 20.9 C 75 % 16.3 C
240 12-09-2019 19:55:00 20.6 C 76 % 16.22 C
241 12-09-2019 20:00:00 20.2 C 78 % 16.24 C
242 12-09-2019 20:05:00 19.9 C 79 % 16.15 C
243 12-09-2019 20:10:00 19.6 C 79 % 15.86 C
244 12-09-2019 20:15:00 19.4 C 80 % 15.86 C
245 12-09-2019 20:20:00 19.3 C 81 % 15.96 C
246 12-09-2019 20:25:00 19.1 C 81 % 15.76 C
247 12-09-2019 20:30:00 18.9 C 81 % 15.57 C
248 12-09-2019 20:35:00 18.8 C 82 % 15.66 C
249 12-09-2019 20:40:00 18.7 C 82 % 15.57 C
250 12-09-2019 20:45:00 18.6 C 83 % 15.66 C
Sensor: Nr:Datum:Temp:Feuchte:Taupunkt:
Aussen-T/F 251 12-09-2019 20:50:00 18.5 C 83 % 15.56 C
252 12-09-2019 20:55:00 18.4 C 83 % 15.46 C
253 12-09-2019 21:00:00 18.3 C 84 % 15.55 C
254 12-09-2019 21:05:00 18.2 C 84 % 15.45 C
255 12-09-2019 21:10:00 18.1 C 85 % 15.54 C
256 12-09-2019 21:15:00 18.1 C 84 % 15.35 C
257 12-09-2019 21:20:00 18.1 C 85 % 15.54 C
258 12-09-2019 21:25:00 18.1 C 85 % 15.54 C
259 12-09-2019 21:30:00 18.2 C 85 % 15.64 C
260 12-09-2019 21:35:00 18.2 C 85 % 15.64 C
261 12-09-2019 21:40:00 18.3 C 85 % 15.74 C
262 12-09-2019 21:45:00 18.3 C 85 % 15.74 C
263 12-09-2019 21:50:00 18.4 C 85 % 15.83 C
264 12-09-2019 21:55:00 18.4 C 85 % 15.83 C
265 12-09-2019 22:00:00 18.4 C 84 % 15.65 C
266 12-09-2019 22:05:00 18.4 C 84 % 15.65 C
267 12-09-2019 22:10:00 18.4 C 84 % 15.65 C
268 12-09-2019 22:15:00 18.4 C 84 % 15.65 C
269 12-09-2019 22:20:00 18.4 C 84 % 15.65 C
270 12-09-2019 22:25:00 18.4 C 84 % 15.65 C
271 12-09-2019 22:30:00 18.4 C 84 % 15.65 C
272 12-09-2019 22:35:00 18.4 C 84 % 15.65 C
273 12-09-2019 22:40:00 18.4 C 84 % 15.65 C
274 12-09-2019 22:45:00 18.3 C 84 % 15.55 C
275 12-09-2019 22:50:00 18.2 C 84 % 15.45 C
Sensor: Nr:Datum:Temp:Feuchte:Taupunkt:
Aussen-T/F 276 12-09-2019 22:55:00 18.1 C 84 % 15.35 C
277 12-09-2019 23:00:00 17.8 C 84 % 15.06 C
278 12-09-2019 23:05:00 17.7 C 85 % 15.15 C
279 12-09-2019 23:10:00 17.5 C 85 % 14.95 C
280 12-09-2019 23:15:00 17.3 C 86 % 14.94 C
281 12-09-2019 23:20:00 17.2 C 86 % 14.84 C
282 12-09-2019 23:25:00 17.1 C 87 % 14.92 C
283 12-09-2019 23:30:00 16.9 C 87 % 14.72 C
284 12-09-2019 23:35:00 16.8 C 88 % 14.8 C
285 12-09-2019 23:40:00 16.7 C 88 % 14.7 C
286 12-09-2019 23:45:00 16.7 C 88 % 14.7 C
287 12-09-2019 23:50:00 16.6 C 88 % 14.6 C
288 12-09-2019 23:55:00 16.5 C 89 % 14.68 C

Legende:
   Min
   Max


Maximal/Minimal-Werte vom 21.07.2019 - 23.08.2019

Sensor Min Max Avg
Temp
(Aussen-T/F)
9.6 °C
22-08-2019  07:05:00
40.4 °C
25-07-2019  16:20:00
20.28 °C
Feuchte
(Aussen-T/F)
21 %
24-07-2019  17:10:00
98 %
18-08-2019  09:25:00
74.47 %

Die Daten stammen von einer Davis Vantage Pro 2 Wetter-Station und werden unter Linux mit der Software wview2wettercgi und aufbereitet. Alle Angaben erfolgen ohne Gewähr für ihre Vollständigkeit oder Richtigkeit.
Kontakt: Rainer Krienke krienke@uni-koblenz.de . Meine Webseiten an der Uni Koblenz oder privat.
Version: $Revision: 0.78 $